�������l�o���
Date,Time,MP-1(��Sv/h),MP-2(��Sv/h),MP-3(��Sv/h),MP-4(��Sv/h),MP-5(��Sv/h),MP-6(��Sv/h),MP-7(��Sv/h),MP-8(��Sv/h),����,����(m/s),���J
2022/05/07,00:00,0.579,0.863,0.550,1.046,0.741,0.348,0.603,0.567,��,9.6,��
2022/05/07,00:10,0.580,0.865,0.549,1.045,0.741,0.347,0.603,0.566,��,9.1,��
2022/05/07,00:20,0.580,0.865,0.550,1.047,0.742,0.349,0.601,0.566,��,8.9,��
2022/05/07,00:30,0.580,0.864,0.548,1.048,0.740,0.349,0.602,0.567,��,7.8,��
2022/05/07,00:40,0.578,0.863,0.550,1.047,0.741,0.348,0.603,0.566,��,7.9,��
2022/05/07,00:50,0.581,0.864,0.548,1.046,0.740,0.349,0.601,0.567,��,8.7,��
2022/05/07,01:00,0.580,0.860,0.550,1.048,0.739,0.348,0.602,0.566,��,8.6,��
2022/05/07,01:10,0.579,0.863,0.549,1.046,0.740,0.347,0.603,0.567,��,9.1,��
2022/05/07,01:20,0.579,0.863,0.549,1.047,0.740,0.349,0.602,0.567,��,8.6,��
2022/05/07,01:30,0.579,0.864,0.549,1.049,0.741,0.350,0.601,0.567,��,7.7,��
2022/05/07,01:40,0.577,0.864,0.550,1.047,0.739,0.348,0.601,0.567,��,7.3,��
2022/05/07,01:50,0.579,0.863,0.548,1.047,0.741,0.347,0.603,0.567,��,6.8,��
2022/05/07,02:00,0.578,0.865,0.551,1.048,0.739,0.349,0.602,0.565,��,6.9,��
2022/05/07,02:10,0.578,0.862,0.548,1.045,0.740,0.348,0.601,0.566,��,7.9,��
2022/05/07,02:20,0.579,0.865,0.548,1.049,0.740,0.350,0.602,0.568,��,6.6,��
2022/05/07,02:30,0.580,0.865,0.549,1.044,0.741,0.349,0.602,0.566,��,6.7,��
2022/05/07,02:40,0.577,0.864,0.550,1.047,0.740,0.348,0.602,0.568,��,6.2,��
2022/05/07,02:50,0.578,0.863,0.550,1.045,0.741,0.348,0.602,0.566,��,6.2,��
2022/05/07,03:00,0.578,0.861,0.548,1.047,0.739,0.348,0.602,0.566,��,5.3,��
2022/05/07,03:10,0.578,0.865,0.549,1.047,0.739,0.349,0.601,0.566,��,5.3,��
2022/05/07,03:20,0.578,0.864,0.550,1.045,0.740,0.349,0.603,0.567,��,4.3,��
2022/05/07,03:30,0.577,0.863,0.550,1.048,0.739,0.349,0.604,0.567,��,2.0,��
2022/05/07,03:40,0.578,0.863,0.550,1.047,0.740,0.348,0.603,0.566,��쐼,2.0,��
2022/05/07,03:50,0.577,0.862,0.550,1.046,0.740,0.348,0.602,0.567,��,2.9,��
2022/05/07,04:00,0.578,0.862,0.549,1.048,0.739,0.347,0.602,0.566,��,5.7,��
2022/05/07,04:10,0.578,0.864,0.549,1.048,0.738,0.348,0.602,0.567,��,5.1,��
2022/05/07,04:20,0.578,0.862,0.549,1.049,0.739,0.347,0.604,0.566,��,4.6,��
2022/05/07,04:30,0.578,0.862,0.548,1.046,0.739,0.350,0.603,0.567,��,4.0,��
2022/05/07,04:40,0.577,0.863,0.549,1.047,0.740,0.347,0.602,0.564,��,3.1,��
2022/05/07,04:50,0.577,0.861,0.549,1.047,0.739,0.350,0.602,0.567,��,3.2,��
2022/05/07,05:00,0.580,0.863,0.548,1.046,0.740,0.349,0.602,0.566,��,3.6,��
2022/05/07,05:10,0.577,0.862,0.548,1.046,0.741,0.348,0.600,0.566,��쐼,3.1,��
2022/05/07,05:20,0.579,0.861,0.548,1.045,0.739,0.349,0.602,0.567,��,2.9,��
2022/05/07,05:30,0.579,0.863,0.548,1.045,0.740,0.350,0.602,0.566,��,3.6,��
2022/05/07,05:40,0.576,0.861,0.548,1.047,0.740,0.349,0.603,0.566,��,4.4,��
2022/05/07,05:50,0.580,0.864,0.549,1.046,0.741,0.349,0.603,0.568,��쐼,3.8,��
2022/05/07,06:00,0.578,0.864,0.547,1.048,0.740,0.348,0.603,0.566,��,3.0,��
2022/05/07,06:10,0.579,0.862,0.549,1.046,0.740,0.348,0.601,0.566,��,3.1,��
2022/05/07,06:20,0.579,0.866,0.549,1.046,0.741,0.348,0.602,0.566,��,3.3,��
2022/05/07,06:30,0.579,0.864,0.550,1.045,0.742,0.349,0.603,0.566,��,3.6,��
2022/05/07,06:40,0.577,0.863,0.548,1.046,0.740,0.349,0.603,0.566,��,3.6,��
2022/05/07,06:50,0.578,0.861,0.551,1.046,0.741,0.350,0.603,0.567,��,2.8,��
2022/05/07,07:00,0.577,0.861,0.550,1.050,0.739,0.348,0.604,0.566,��,2.0,��
2022/05/07,07:10,0.579,0.862,0.550,1.047,0.741,0.347,0.604,0.569,��,2.8,��
2022/05/07,07:20,0.578,0.860,0.550,1.049,0.741,0.348,0.604,0.569,��쐼,3.8,��
2022/05/07,07:30,0.578,0.863,0.550,1.049,0.741,0.348,0.605,0.566,��,5.1,��
2022/05/07,07:40,0.577,0.860,0.550,1.048,0.742,0.347,0.605,0.568,��,4.7,��
2022/05/07,07:50,0.576,0.862,0.548,1.049,0.741,0.347,0.604,0.567,��쓌,6.6,��
2022/05/07,08:00,0.576,0.862,0.549,1.048,0.742,0.348,0.603,0.567,��쓌,8.5,��
2022/05/07,08:10,0.578,0.861,0.549,1.049,0.741,0.348,0.602,0.567,��,8.1,��
2022/05/07,08:20,0.577,0.861,0.552,1.050,0.741,0.347,0.603,0.565,��,8.4,��
2022/05/07,08:30,0.577,0.864,0.550,1.049,0.739,0.348,0.604,0.564,��,9.4,��
2022/05/07,08:40,0.579,0.865,0.549,1.050,0.741,0.349,0.602,0.566,��,9.4,��
2022/05/07,08:50,0.576,0.861,0.548,1.050,0.742,0.348,0.603,0.564,��쓌,11.3,��
2022/05/07,09:00,0.578,0.862,0.548,1.050,0.741,0.347,0.602,0.565,��쓌,11.3,��
2022/05/07,09:10,0.577,0.863,0.548,1.051,0.739,0.349,0.602,0.565,��쓌,11.6,��
2022/05/07,09:20,0.578,0.862,0.548,1.050,0.740,0.349,0.603,0.565,��쓌,11.6,��
2022/05/07,09:30,0.577,0.864,0.548,1.050,0.739,0.351,0.602,0.566,��쓌,10.0,��
2022/05/07,09:40,0.577,0.863,0.549,1.050,0.739,0.348,0.603,0.564,��쓌,11.8,��
2022/05/07,09:50,0.579,0.864,0.549,1.048,0.739,0.347,0.603,0.567,��쓌,12.4,��
2022/05/07,10:00,0.579,0.863,0.549,1.050,0.741,0.348,0.603,0.564,��쓌,11.4,��
2022/05/07,10:10,0.578,0.862,0.549,1.048,0.742,0.348,0.602,0.565,��쓌,10.7,��
2022/05/07,10:20,0.578,0.864,0.548,1.048,0.743,0.347,0.603,0.565,��쓌,11.6,��
2022/05/07,10:30,0.579,0.864,0.549,1.047,0.741,0.348,0.601,0.566,��쓌,11.6,��
2022/05/07,10:40,0.580,0.865,0.549,1.050,0.740,0.348,0.603,0.566,��쓌,10.8,��
2022/05/07,10:50,0.578,0.863,0.549,1.048,0.741,0.347,0.602,0.565,��,11.6,��
2022/05/07,11:00,0.579,0.863,0.548,1.047,0.742,0.349,0.602,0.565,��쓌,11.7,��
2022/05/07,11:10,0.581,0.865,0.551,1.050,0.741,0.349,0.602,0.565,��쓌,11.8,��
2022/05/07,11:20,0.581,0.866,0.549,1.048,0.743,0.349,0.603,0.565,��쓌,11.4,��
2022/05/07,11:30,0.579,0.864,0.548,1.048,0.742,0.349,0.602,0.565,��,10.8,��
2022/05/07,11:40,0.580,0.865,0.549,1.045,0.740,0.348,0.602,0.565,��,9.6,��
2022/05/07,11:50,0.581,0.864,0.550,1.047,0.743,0.349,0.604,0.564,��,9.2,��
2022/05/07,12:00,0.579,0.866,0.550,1.048,0.742,0.348,0.602,0.567,��쓌,12.1,��
2022/05/07,12:10,0.580,0.864,0.551,1.047,0.743,0.349,0.603,0.565,��쓌,11.3,��
2022/05/07,12:20,0.579,0.866,0.549,1.048,0.744,0.350,0.602,0.566,��,11.3,��
2022/05/07,12:30,0.581,0.863,0.550,1.048,0.743,0.350,0.602,0.566,��쓌,12.0,��
2022/05/07,12:40,0.580,0.865,0.549,1.050,0.742,0.349,0.603,0.566,��쓌,11.3,��
2022/05/07,12:50,0.581,0.866,0.553,1.048,0.745,0.348,0.601,0.566,��쓌,11.9,��
2022/05/07,13:00,0.580,0.867,0.550,1.047,0.744,0.349,0.604,0.566,��쓌,11.8,��
2022/05/07,13:10,0.581,0.866,0.550,1.048,0.745,0.350,0.603,0.566,��,11.3,��
2022/05/07,13:20,0.581,0.869,0.551,1.050,0.745,0.350,0.602,0.565,��쓌,11.0,��
2022/05/07,13:30,0.581,0.865,0.550,1.049,0.744,0.349,0.599,0.564,��쓌,12.5,��
2022/05/07,13:40,0.581,0.865,0.549,1.048,0.745,0.348,0.602,0.567,��쓌,11.1,��
2022/05/07,13:50,0.582,0.865,0.552,1.049,0.745,0.348,0.602,0.567,��쓌,13.8,��
2022/05/07,14:00,0.582,0.867,0.551,1.050,0.745,0.350,0.603,0.566,��,13.6,��
2022/05/07,14:10,0.582,0.867,0.551,1.052,0.743,0.350,0.603,0.566,��쓌,13.8,��
2022/05/07,14:20,0.582,0.867,0.551,1.048,0.743,0.349,0.602,0.566,��쓌,13.0,��
2022/05/07,14:30,0.583,0.865,0.550,1.050,0.745,0.350,0.603,0.566,��,11.3,��
2022/05/07,14:40,0.581,0.866,0.552,1.052,0.744,0.351,0.604,0.567,��쓌,9.9,��
2022/05/07,14:50,0.583,0.866,0.552,1.047,0.746,0.350,0.602,0.566,��쓌,13.3,��
2022/05/07,15:00,0.582,0.866,0.550,1.053,0.746,0.349,0.603,0.566,��쓌,14.9,��
2022/05/07,15:10,0.582,0.866,0.551,1.050,0.746,0.350,0.604,0.566,��쓌,12.8,��
2022/05/07,15:20,0.582,0.866,0.551,1.050,0.744,0.349,0.604,0.566,��쓌,10.3,��
2022/05/07,15:30,0.582,0.867,0.551,1.050,0.743,0.349,0.604,0.567,��,8.8,��
2022/05/07,15:40,0.580,0.866,0.551,1.051,0.747,0.350,0.602,0.566,��,10.4,��
2022/05/07,15:50,0.581,0.866,0.552,1.052,0.745,0.348,0.603,0.565,��,10.5,��
2022/05/07,16:00,0.584,0.866,0.552,1.049,0.746,0.349,0.603,0.567,��,9.3,��
2022/05/07,16:10,0.583,0.868,0.551,1.052,0.746,0.350,0.604,0.568,��,10.5,��
2022/05/07,16:20,0.582,0.866,0.552,1.051,0.746,0.350,0.602,0.566,��,11.3,��
2022/05/07,16:30,0.581,0.867,0.550,1.052,0.746,0.349,0.603,0.566,��쓌,12.1,��
2022/05/07,16:40,0.581,0.866,0.552,1.053,0.746,0.350,0.602,0.568,��,9.9,��
2022/05/07,16:50,0.584,0.866,0.552,1.052,0.745,0.350,0.602,0.567,��,10.7,��
2022/05/07,17:00,0.580,0.868,0.549,1.050,0.745,0.348,0.602,0.567,��쓌,11.3,��
2022/05/07,17:10,0.581,0.866,0.552,1.051,0.747,0.349,0.603,0.566,��쓌,12.4,��
2022/05/07,17:20,0.581,0.865,0.549,1.051,0.747,0.349,0.602,0.567,��쓌,13.3,��
2022/05/07,17:30,0.581,0.865,0.551,1.051,0.746,0.349,0.603,0.567,��쓌,13.5,��
2022/05/07,17:40,0.580,0.867,0.551,1.051,0.747,0.349,0.602,0.566,��,10.7,��
2022/05/07,17:50,0.582,0.865,0.551,1.052,0.744,0.349,0.602,0.567,��,11.7,��
2022/05/07,18:00,0.580,0.865,0.552,1.053,0.747,0.348,0.601,0.567,��쓌,10.5,��
2022/05/07,18:10,0.580,0.866,0.550,1.055,0.745,0.350,0.603,0.566,��,9.4,��
2022/05/07,18:20,0.581,0.868,0.549,1.054,0.745,0.348,0.601,0.569,��쓌,12.0,��
2022/05/07,18:30,0.581,0.865,0.549,1.055,0.745,0.348,0.601,0.569,��,10.5,��
2022/05/07,18:40,0.581,0.865,0.550,1.055,0.746,0.349,0.601,0.570,��,9.8,��
2022/05/07,18:50,0.582,0.865,0.552,1.055,0.745,0.350,0.602,0.569,��,10.2,��
2022/05/07,19:00,0.581,0.867,0.551,1.054,0.745,0.351,0.601,0.568,��,9.6,��
2022/05/07,19:10,0.580,0.868,0.549,1.055,0.745,0.349,0.602,0.571,��,7.6,��
2022/05/07,19:20,0.580,0.868,0.551,1.055,0.746,0.348,0.603,0.570,��,8.9,��
2022/05/07,19:30,0.582,0.870,0.552,1.054,0.745,0.349,0.603,0.570,��,8.3,��
2022/05/07,19:40,0.582,0.870,0.553,1.056,0.746,0.350,0.604,0.569,��,8.3,��
2022/05/07,19:50,0.582,0.868,0.553,1.054,0.745,0.349,0.603,0.569,��,7.5,��
2022/05/07,20:00,0.579,0.869,0.553,1.054,0.746,0.348,0.605,0.569,��,7.9,��
2022/05/07,20:10,0.581,0.869,0.552,1.055,0.745,0.351,0.602,0.569,��,7.5,��
2022/05/07,20:20,0.581,0.871,0.555,1.053,0.746,0.350,0.605,0.570,��,6.5,��
2022/05/07,20:30,0.580,0.870,0.553,1.056,0.746,0.349,0.604,0.571,��,6.3,��
2022/05/07,20:40,0.581,0.870,0.554,1.055,0.746,0.350,0.604,0.568,��,7.6,��
2022/05/07,20:50,0.581,0.868,0.554,1.054,0.748,0.349,0.604,0.570,��,7.0,��
2022/05/07,21:00,0.582,0.868,0.553,1.053,0.747,0.350,0.605,0.570,��,7.0,��
2022/05/07,21:10,0.580,0.870,0.553,1.056,0.746,0.351,0.604,0.569,��,8.3,��
2022/05/07,21:20,0.582,0.870,0.552,1.054,0.746,0.348,0.603,0.569,��,7.2,��
2022/05/07,21:30,0.583,0.868,0.552,1.054,0.745,0.349,0.606,0.569,��,6.8,��
2022/05/07,21:40,0.584,0.869,0.553,1.054,0.747,0.349,0.604,0.567,��,8.1,��
2022/05/07,21:50,0.583,0.870,0.553,1.055,0.747,0.350,0.604,0.570,��,7.1,��
2022/05/07,22:00,0.582,0.869,0.553,1.055,0.743,0.349,0.604,0.568,��,6.8,��
2022/05/07,22:10,0.582,0.871,0.552,1.055,0.747,0.350,0.605,0.569,��,6.7,��
2022/05/07,22:20,0.582,0.869,0.553,1.054,0.746,0.350,0.605,0.570,��쐼,6.3,��
2022/05/07,22:30,0.579,0.868,0.554,1.057,0.747,0.349,0.605,0.569,��,6.3,��
2022/05/07,22:40,0.580,0.871,0.553,1.054,0.746,0.350,0.605,0.570,��,6.8,��
2022/05/07,22:50,0.582,0.870,0.554,1.056,0.748,0.349,0.605,0.569,��,6.6,��
2022/05/07,23:00,0.581,0.869,0.552,1.056,0.745,0.349,0.604,0.569,��,5.9,��
2022/05/07,23:10,0.581,0.870,0.553,1.052,0.746,0.351,0.606,0.567,��,7.1,��
2022/05/07,23:20,0.583,0.869,0.553,1.054,0.747,0.351,0.604,0.571,��,5.5,��
2022/05/07,23:30,0.582,0.870,0.554,1.054,0.746,0.351,0.604,0.571,��,4.9,��
2022/05/07,23:40,0.583,0.869,0.552,1.056,0.746,0.351,0.603,0.569,��쐼,4.7,��
2022/05/07,23:50,0.583,0.869,0.554,1.056,0.747,0.350,0.603,0.569,��,4.5,��
